Location: Peebles
(55.6412°N, 3.1714°W)
Time: 15:32:59
(UTC+01:00)

Iridium 4 Rocket - Pass Details

Date: 26 September 2021
Orbit: 583 x 906 km, 86.9° (Epoch: 17 October)

Event Time Altitude Azimuth Distance (km) Brightness Sun altitude
Rises 21:30:21 0° 357° (N) 2,943 7.0 -21.1°
Reaches altitude 10° 21:32:40 10° 1° (N) 1,994 6.0 -21.3°
Enters shadow 21:36:53 62° 76° (ENE) 676 3.0 -21.9°
